星链-34123 (STARLINK-34123)

导读

STARLINK-34123是美国SpaceX星链互联网卫星星座中的一员,于2025年5月10日发射升空。星链计划旨在构建全球卫星互联网络,为全球各地尤其是偏远地区提供低成本高速互联网服务,该卫星加入星座后进一步扩充了星链的覆盖范围与服务能力,助力完成星座组网目标。

基本信息
目录编号:
63891
目录名称:
STARLINK-34123
国际标识:
2025-095B
轨道中心:
EARTH
卫星名称:
星链-34123
卫星全名:
星链-34123 (STARLINK-34123)
卫星状态:
在轨 (已飞行483 天)
发射日期:
2025-05-10 UTC
国别 :
美国 (US)
星等 :
--
轨道信息
数据来源 国际轨道数据 AOE轨道数据
星历时间 2026-09-05T09:03:21+0800
11小时前
查看轨道信息
2026-08-30T08:00:00+0800
6天前
查看轨道信息
半长轴 6861.179km 6861.205km
偏心率 0.0001806 0.0001704
轨道倾角 43.000° 43.002°
近地点辐角 286.850° 259.353°
升交点赤经 243.677° 277.816°
平近点角 73.215° 304.050°
近地点 481.802km 481.898km
远地点 484.282km 484.238km
周期 94.267分钟 94.267分钟
每日圈数 15.275825 15.275739
详细信息
固有亮度:
5
最大亮度:
2.5
卫星平台:
Starlink V1.0
覆盖范围:
全球
运营商:
太空探索技术公司
运营商所在国:
美国
制造商(研发单位):
太空探索技术公司
制造商所在国:
美国
使用方式:
暂无
卫星简介
Starlink 计划是 SpaceX 推出的全球卫星互联网项目,通过发射低轨道卫星,为全球尤其是偏远地区提供高速、低延迟的互联网服务。自 2019 年起,Starlink 已部署数千颗卫星,旨在缩小全球数字鸿沟,推动互联网普及。该项目还为军事、航空等行业提供通信支持,带来广泛经济效益。
2D轨道图
3D轨道图
轨道高度分析图
轨道倾角分析图
轨道综合分析图
查看轨道综合分析图
交会数据列表
事件ID 空间交会对象 最接近时刻(TCA) 交会距离 交会风险概率(CRP) 交会风险指数(CRI) 操作
CDM_260905-192806-050006-389121
2026-09-05T
19:28:21+0000
2.939 km
极远距离
1.175717E-6 低风险 0.36